星链-4378 (STARLINK-4378 )

导读

STARLINK-4378是美国太空探索技术公司星链计划中的一颗卫星,于2022年8月12日发射升空,作为星链星座的组成部分,它主要服务于全球卫星互联网项目,为偏远地区、海洋等场景提供宽带互联网接入服务,推进全球高速网络覆盖布局,推动星链星座低轨卫星互联网组网进程。

基本信息
目录编号:
53476
目录名称:
STARLINK-4378
国际标识:
2022-099M
轨道中心:
EARTH
卫星名称:
星链-4378
卫星全名:
星链-4378 (STARLINK-4378 )
卫星状态:
在轨 (已飞行1492 天)
发射日期:
2022-08-12 UTC
国别 :
美国 (US)
星等 :
--
该卫星已列入 空间交会检测服务 Space Conjunction Data Service (SCDS) ,当前飞行风险评估等级: 无高风险
轨道信息
数据来源 国际轨道数据
星历时间: 2026-09-12T12:00:02+0800
7小时前
查看轨道信息
半长轴: 6920.394km
偏心率: 0.0002626
轨道倾角: 97.288°
近地点辐角 92.071°
升交点赤经 9.551°
平近点角 155.324°
近地点: 540.439km
远地点: 544.075km
周期: 95.490分钟
每日圈数: 15.080182
详细信息
固有亮度:
5
最大亮度:
2.5
卫星平台:
Starlink v1.5
覆盖范围:
全球
运营商:
太空探索技术公司
运营商所在国:
美国
制造商(研发单位):
太空探索技术公司
制造商所在国:
美国
使用方式:
暂无
卫星简介
星链(Starlink)计划是由太空探索技术公司(SpaceX)提出的一个巨型低轨卫星互联网星座项目,计划在2019年至2024年间在太空搭建由约1.2万颗卫星组成的“星链”网络,其中1584颗将部署在地球上空550千米处的近地轨道,并从2020年开始工作。该卫星仍在工作。
2D轨道图
3D轨道图
轨道高度分析图
轨道倾角分析图
轨道综合分析图
查看轨道综合分析图
交会数据列表
事件ID 空间交会对象 最接近时刻(TCA) 交会距离 交会风险概率(CRP) 交会风险指数(CRI) 操作
CDM_260912-191104-463605-347621
2026-09-12T
19:11:33+0000
1.646 km
极远距离
4.981618E-6 低风险 0.49
CDM_260912-005505-347606-869521
OBJECT E (68695)
2026-09-12T
00:55:43+0000
2.213 km
极远距离
1.171888E-6 低风险 0.36
与全量物体交会距离演化趋势
与全量物体交会风险概率演化趋势